Weather History for KPNS - March, 2014

Change the Weather History Date:

Friday, March 21, 2014

  Actual Average Record
Temperature  
Mean Temperature 64 °F 61 °F  
Max Temperature 76 °F 71 °F 84 °F (2006)
Min Temperature 51 °F 52 °F 32 °F (1965)
Degree Days  
Heating Degree Days 1 5  
Month to date heating degree days 157 136  
Since 1 July heating degree days 1494 1444  
Cooling Degree Days 0 1  
Month to date cooling degree days 2 20  
Year to date cooling degree days 17 34  
Growing Degree Days 13 (Base 50)    
Moisture  
Dew Point 45 °F    
Average Humidity 57    
Maximum Humidity 90    
Minimum Humidity 23    
Precipitation  
Precipitation 0.00 in 0.18 in 2.23 in (1989)
Month to date precipitation 4.17 4.01  
Year to date precipitation 15.50 13.70  
Snow  
Snow 0.00 in 0.00 in - ()
Month to date snowfall 0.0 0.0  
Since 1 July snowfall 1.0 0.0  
Snow Depth 0.00 in    
Sea Level Pressure  
Sea Level Pressure 30.08 in    
Wind  
Wind Speed 6 mph (ESE)    
Max Wind Speed 15 mph    
Max Gust Speed 19 mph    
Visibility 9 miles    
Events      
T = Trace of Precipitation, MM = Missing Value Source: NWS Daily Summary

Daily Weather History Graph

Daily Weather History Graph

Search for Another Location

Airport or City:

Trip Planner

Search our weather history database for the weather conditions in past years. The results will help you decide how hot, cold, wet, or windy it might be!

Date:

Astronomy

Mar. 21, 2014 Rise Set
Actual Time 6:51 AM CDT 7:00 PM CDT
Civil Twilight 6:27 AM CDT 7:24 PM CDT
Nautical Twilight 5:59 AM CDT 7:52 PM CDT
Astronomical Twilight 5:31 AM CDT 8:21 PM CDT
Moon No Moon Rise 10:01 AM CDT (3/21)
Length of Visible Light 12h 57m
Length of Day
12h 09m
Waning Gibbous, 75% of the Moon is Illuminated
Mar 21
Waning Gibbous
Mar 23
Last Quarter
Mar 30
New
Apr 7
First Quarter
Apr 15
Full

Hourly Weather History & Observations

Time (CDT) Temp. Dew Point Humidity Pressure Visibility Wind Dir Wind Speed Gust Speed Precip Events Conditions
12:53 AM 54.0 °F 50.0 °F 86% 30.08 in 10.0 mi Calm Calm - N/A   Clear
1:53 AM 53.1 °F 46.0 °F 77% 30.08 in 10.0 mi Calm Calm - N/A   Clear
2:53 AM 51.1 °F 44.1 °F 77% 30.08 in 10.0 mi North 4.6 mph - N/A   Clear
3:53 AM 55.0 °F 39.0 °F 55% 30.07 in 10.0 mi NNE 5.8 mph - N/A   Clear
4:53 AM 53.1 °F 39.9 °F 61% 30.08 in 10.0 mi NNE 4.6 mph - N/A   Clear
5:53 AM 54.0 °F 37.9 °F 55% 30.09 in 10.0 mi NE 3.5 mph - N/A   Clear
6:53 AM 55.9 °F 34.0 °F 44% 30.10 in 10.0 mi ENE 4.6 mph - N/A   Clear
7:53 AM 57.0 °F 36.0 °F 45% 30.12 in 10.0 mi NE 6.9 mph - N/A   Clear
8:53 AM 62.1 °F 37.0 °F 39% 30.13 in 10.0 mi ENE 5.8 mph - N/A   Clear
9:53 AM 66.0 °F 35.1 °F 32% 30.14 in 10.0 mi East 6.9 mph - N/A   Clear
10:53 AM 70.0 °F 34.0 °F 27% 30.14 in 10.0 mi ESE 6.9 mph - N/A   Clear
11:53 AM 73.0 °F 34.0 °F 24% 30.12 in 10.0 mi Variable 4.6 mph - N/A   Clear
12:53 PM 75.9 °F 35.1 °F 23% 30.10 in 10.0 mi SSE 12.7 mph - N/A   Clear
1:53 PM 75.0 °F 42.1 °F 31% 30.08 in 10.0 mi SSE 10.4 mph - N/A   Clear
2:53 PM 73.9 °F 43.0 °F 33% 30.06 in 10.0 mi SSE 13.8 mph - N/A   Clear
3:53 PM 72.0 °F 48.0 °F 43% 30.04 in 10.0 mi SSE 11.5 mph - N/A   Clear
4:53 PM 70.0 °F 52.0 °F 53% 30.04 in 10.0 mi SSE 11.5 mph - N/A   Clear
5:53 PM 68.0 °F 55.0 °F 63% 30.04 in 10.0 mi South 8.1 mph - N/A   Clear
6:53 PM 64.9 °F 55.0 °F 70% 30.05 in 10.0 mi South 6.9 mph - N/A   Clear
7:53 PM 63.0 °F 57.9 °F 84% 30.05 in 10.0 mi South 4.6 mph - N/A   Clear
8:53 PM 62.1 °F 57.9 °F 86% 30.05 in 7.0 mi Calm Calm - N/A   Clear
9:53 PM 61.0 °F 57.9 °F 90% 30.05 in 7.0 mi Calm Calm - N/A   Clear
10:53 PM 62.1 °F 59.0 °F 90% 30.05 in 5.0 mi Calm Calm - N/A   Clear
11:53 PM 62.1 °F 59.0 °F 90% 30.05 in 4.0 mi Calm Calm - N/A   Clear